RH
22 26 26 23 20 19 23 27 28 26 24 22 20 20 20 21 21 22 23 24 24 24 24 24 24 24 24 25 27 29 30 31 32 34 37 40 43 47 53 59 63 64
17 20 21 20 18 18 19 23 26 25 24 24 23 22 21 21 21 22 24 24 24 24 24 24 24 23 24 24 25 26 26 25 26 29 33 38 42 47 50 55 61 64
16 16 17 18 18 18 20 24 27 27 25 25 24 24 23 21 21 23 25 26 25 25 24 24 25 24 23 23 23 24 23 24 26 29 34 40 44 47 50 55 60 58
18 16 15 17 19 18 20 24 28 27 25 25 25 24 23 22 22 24 27 27 26 25 26 25 25 25 24 22 22 22 24 26 28 30 33 37 40 43 47 49 49 44
19 19 17 16 18 19 19 22 25 27 26 25 25 25 23 23 24 26 28 29 27 26 27 26 26 26 24 22 22 22 25 27 27 27 29 32 34 36 37 37 35 32
22 20 20 19 18 18 18 19 22 26 28 27 26 25 24 24 25 27 30 30 27 27 27 27 27 26 25 23 22 24 26 25 24 24 26 29 30 32 32 30 27 22
25 23 21 21 20 19 18 19 19 23 27 28 27 25 24 24 25 27 30 31 29 27 28 28 28 27 25 23 23 24 24 23 22 23 26 30 31 33 33 27 20 14
20 24 23 21 21 21 20 20 19 20 24 25 26 25 23 23 24 26 28 30 30 28 28 29 29 28 26 23 22 23 23 22 21 23 27 32 34 35 35 28 19 13
18 19 23 22 21 21 21 22 21 20 22 24 25 25 24 23 23 24 25 28 30 29 29 30 29 28 26 23 22 22 22 21 21 24 29 34 36 37 38 31 21 14
31 20 19 22 23 22 21 21 21 21 21 22 24 24 24 24 23 23 23 25 27 29 29 29 29 28 26 24 23 22 22 21 20 25 32 35 37 39 40 36 27 20
52 37 24 20 22 23 23 21 20 21 21 21 22 23 23 24 24 24 23 23 25 27 29 28 27 27 26 24 23 22 23 21 20 26 33 35 37 40 40 38 35 29
58 59 43 28 21 20 24 25 22 21 20 20 21 21 22 23 23 24 23 23 24 25 27 26 25 26 26 24 24 23 23 21 21 27 33 35 36 39 39 39 39 37
46 66 63 47 33 21 20 25 27 25 22 20 20 19 21 22 22 23 24 25 26 25 25 25 24 25 25 25 24 23 23 22 20 25 32 35 35 36 37 38 40 41
28 50 63 62 53 37 23 21 26 30 28 25 23 21 20 20 20 21 23 24 26 25 24 24 24 25 26 25 24 23 23 22 21 23 29 35 36 35 35 37 41 42
17 29 46 62 69 63 46 29 22 25 30 31 30 27 25 23 21 20 22 23 24 24 24 24 24 25 26 25 24 23 23 23 21 21 25 32 37 37 36 38 42 44
15 17 28 50 72 83 79 61 39 26 24 29 33 34 32 30 27 24 22 21 22 23 23 23 23 25 26 26 25 23 23 23 22 21 21 25 33 37 40 43 45 46
16 16 19 35 60 82 94 93 76 52 33 24 27 33 36 35 33 31 27 23 22 22 22 21 22 25 26 27 26 24 23 23 23 23 21 21 25 30 37 43 45 46
17 16 16 24 43 65 88 102 100 86 64 41 26 24 29 34 35 34 32 30 25 22 22 21 21 25 27 27 27 25 24 23 23 23 22 21 22 23 27 33 38 41
17 17 15 18 28 45 71 95 103 101 92 74 50 31 24 26 30 33 35 36 32 26 23 22 21 25 27 27 27 26 26 24 23 23 23 22 21 21 22 24 28 30
19 18 16 16 19 29 54 83 99 102 102 98 84 63 42 30 26 26 31 37 40 35 29 24 22 25 26 26 26 27 27 26 25 23 23 22 22 22 22 22 23 24
20 19 17 16 16 19 37 66 88 98 101 102 100 92 79 64 49 37 30 30 36 41 39 32 24 23 25 27 27 28 29 28 27 24 23 22 22 22 22 22 22 23
21 20 18 17 16 16 25 46 72 88 95 98 101 102 99 94 83 68 50 35 29 35 43 42 35 28 24 24 26 28 28 28 27 26 25 24 23 23 22 22 22 23
22 21 20 18 17 16 18 28 47 69 83 89 93 98 102 102 97 90 80 59 36 28 38 46 45 41 35 28 26 25 26 26 26 26 25 25 24 24 24 23 23 23
22 21 21 19 17 17 16 18 26 43 64 76 80 86 95 101 101 98 99 88 58 32 31 41 48 51 50 43 36 31 27 25 24 24 25 24 24 24 24 24 24 23
22 22 21 20 19 17 16 16 17 23 39 58 68 73 81 94 102 100 101 102 82 48 30 31 41 51 56 54 50 45 39 34 30 27 25 23 23 24 24 24 24 24
24 23 22 20 19 18 16 16 16 16 22 36 50 60 68 81 96 101 101 102 97 78 54 38 36 43 50 54 52 50 48 48 46 42 37 33 30 28 28 27 26 26
Wind_Speed
27 26 25 23 22 21 20 19 19 18 17 16 14 13 12 11 10 8 7 6 6 5 5 4 3 2 3 3 3 4 5 6 6 7 8 9 10 10 11 12 14 15
28 28 27 25 24 23 21 20 19 18 18 17 16 15 14 13 11 10 9 8 8 7 6 5 4 4 4 4 4 5 6 7 7 8 9 10 10 10 11 12 13 15
27 28 28 27 25 24 22 21 20 19 19 18 18 16 15 15 13 12 11 10 10 9 8 7 6 6 6 6 6 6 7 7 8 9 9 10 10 10 10 11 13 15
24 26 28 27 26 25 24 23 21 20 20 19 18 17 17 16 15 14 13 12 11 10 10 9 7 7 7 7 7 7 7 7 8 8 9 9 10 10 11 11 13 15
22 23 25 27 27 26 26 25 23 21 20 19 19 18 18 17 17 16 14 13 13 12 12 11 9 8 8 8 8 8 8 7 7 8 9 9 10 10 11 12 14 16
24 23 24 26 27 28 27 26 25 23 22 21 20 20 19 18 18 17 16 15 14 14 13 13 11 10 10 10 9 9 8 8 8 9 10 10 10 11 12 14 15 16
27 25 25 25 27 28 28 27 26 25 24 23 22 21 21 20 19 18 18 17 16 16 15 14 13 12 12 12 11 10 9 9 9 10 10 11 11 11 13 15 16 18
27 28 27 26 27 27 28 28 27 26 25 25 24 23 22 21 20 20 19 19 18 17 17 16 16 15 14 14 13 12 11 10 10 10 11 11 10 11 13 15 17 18
26 28 28 29 28 28 28 28 27 27 26 26 25 24 23 22 22 21 21 20 19 19 18 18 18 17 16 16 15 13 12 11 11 12 12 11 10 11 13 15 16 18
25 27 28 29 30 29 29 29 28 28 27 26 26 25 25 24 23 23 22 22 21 20 20 20 20 19 18 18 17 15 14 13 13 13 13 11 10 11 13 15 15 17
26 27 28 30 31 31 30 30 30 30 29 28 27 27 26 25 24 24 23 23 22 22 22 22 21 21 20 20 19 17 16 15 14 15 14 13 12 12 13 15 15 16
26 28 29 30 30 31 31 31 31 31 30 29 29 28 27 26 26 25 24 23 23 23 23 23 23 22 22 22 21 19 18 17 16 16 16 15 14 13 14 16 16 16
28 29 31 31 30 29 30 32 32 31 30 30 30 29 28 28 27 26 25 24 24 25 25 24 23 23 23 23 23 22 20 19 18 18 18 17 16 16 16 17 17 17
30 31 32 31 30 29 30 32 33 32 32 31 31 31 30 29 28 27 26 25 26 26 25 24 24 24 25 25 25 24 23 21 20 20 20 19 19 19 19 19 19 19
31 31 32 31 30 29 29 31 33 34 34 33 33 33 32 31 29 28 27 26 27 26 26 25 24 25 26 27 27 26 25 23 22 22 22 21 21 21 21 21 21 21
30 31 32 31 31 31 30 31 32 33 35 35 35 35 34 33 31 30 29 28 27 27 26 25 25 25 27 28 28 28 27 26 25 24 24 23 23 23 23 23 23 23
30 31 32 32 32 32 32 32 32 33 34 36 37 37 36 35 34 32 31 30 29 28 28 26 25 26 27 29 30 30 29 28 27 27 26 25 24 24 24 25 26 26
31 31 32 33 33 33 33 33 34 34 34 36 37 38 38 38 36 35 33 32 31 30 29 27 26 27 29 30 30 31 31 31 30 30 29 28 27 26 26 26 27 27
32 32 33 34 35 35 34 34 35 36 36 37 37 37 38 39 39 38 36 34 33 32 31 29 28 28 30 31 31 32 33 33 33 32 32 31 30 29 28 28 28 28
33 34 34 35 36 36 35 35 35 37 37 37 37 37 38 39 40 39 38 37 36 35 34 32 30 30 32 32 32 33 34 35 35 35 34 33 33 32 32 31 31 31
34 35 36 36 37 37 37 37 37 37 37 37 37 38 39 39 39 39 40 40 39 38 36 35 33 33 33 34 34 34 35 37 37 37 36 36 35 35 35 34 34 34
36 37 37 37 38 38 39 39 39 38 37 37 37 38 39 40 40 40 40 40 40 40 39 38 36 35 35 36 36 36 37 38 38 38 38 38 37 37 37 37 37 37
38 39 39 39 39 40 41 42 42 41 40 38 37 38 39 40 41 41 40 39 40 41 41 41 39 38 38 38 38 39 39 40 40 39 39 39 39 39 39 39 40 40
40 40 40 41 41 42 43 44 44 44 43 41 39 38 38 38 39 39 40 39 40 42 43 43 41 40 40 40 40 41 41 42 41 41 41 40 40 40 41 41 42 42
41 41 42 42 43 44 44 44 45 45 45 44 42 41 39 37 37 38 39 40 41 42 43 44 43 43 43 43 43 44 44 43 43 43 43 42 41 41 42 43 43 43
41 42 43 44 44 44 44 45 45 46 47 47 46 44 42 39 38 38 39 40 41 42 42 43 44 45 46 46 46 46 46 46 45 45 44 44 43 43 44 45 45 45
Wind_Direction
213 215 217 220 220 220 219 218 221 225 229 231 232 232 232 231 230 228 230 232 235 242 246 256 271 286 297 298 304 308 315 321 327 332 336 341 344 348 348 349 349 351
215 217 221 224 225 225 222 222 226 230 231 233 234 234 234 234 233 234 235 236 238 241 245 255 269 282 288 294 298 302 309 316 323 330 338 343 347 351 353 352 351 350
218 218 220 222 225 227 226 226 228 230 231 231 233 234 234 236 235 237 239 240 241 244 247 253 263 276 283 289 293 298 306 316 325 335 344 349 351 354 355 354 351 349
223 222 220 220 223 225 226 227 228 229 229 231 233 234 236 237 238 240 242 243 244 246 250 254 258 267 275 281 287 293 302 314 327 339 346 350 352 353 352 350 347 346
224 226 224 221 221 223 226 228 229 230 230 231 233 236 239 241 242 244 245 244 245 246 250 254 256 260 265 271 278 285 295 309 323 334 339 342 345 347 346 345 343 344
220 223 224 223 222 223 224 226 228 230 232 233 234 237 241 244 245 247 246 245 244 245 248 252 254 256 258 261 267 274 284 298 311 322 327 330 334 339 341 342 341 343
220 220 222 224 225 225 225 226 227 228 231 234 236 238 242 245 246 247 247 246 244 244 247 250 252 253 253 255 259 264 272 284 299 311 315 318 326 333 337 339 339 341
223 221 221 223 226 228 228 227 227 227 229 233 237 240 243 246 247 247 248 248 246 245 247 249 250 251 251 251 254 258 264 276 290 300 304 308 318 327 331 335 338 341
228 227 225 224 225 227 229 230 229 228 229 231 235 240 243 246 248 249 250 250 249 248 247 248 249 250 250 249 252 255 261 271 284 292 294 298 308 318 324 330 336 340
232 232 231 229 228 227 228 231 232 231 231 231 234 237 241 245 248 249 251 252 252 251 250 249 249 250 250 250 252 255 260 268 278 285 287 288 297 308 316 323 330 336
231 234 234 234 232 230 229 230 233 235 235 234 235 237 239 243 246 249 251 252 254 254 252 251 250 251 250 250 252 255 259 265 274 281 281 281 287 298 308 316 323 329
230 233 235 235 235 234 232 231 233 235 237 238 238 239 239 241 244 247 250 252 254 254 253 253 252 252 251 250 252 254 258 263 271 277 278 278 280 289 300 307 314 320
229 231 234 235 236 236 236 235 234 235 237 239 241 241 240 241 242 245 248 250 252 253 254 254 253 253 252 251 251 253 256 261 268 275 277 276 277 283 291 299 304 310
232 231 233 235 236 236 237 238 237 236 236 237 240 241 241 241 242 243 245 247 249 252 253 254 254 253 253 252 251 252 256 259 264 271 276 276 276 279 285 292 296 301
236 235 235 235 236 236 237 239 240 239 238 237 239 241 242 242 243 243 244 245 247 249 251 252 253 253 253 252 251 252 255 258 262 268 273 275 276 278 282 287 291 294
239 238 237 236 236 236 237 239 240 241 242 241 240 241 242 243 243 244 244 245 246 248 249 250 251 252 252 252 252 252 254 257 260 264 269 273 275 277 279 283 286 290
241 240 238 236 235 236 237 239 240 241 243 243 243 243 243 244 244 244 245 246 247 249 249 250 250 251 253 253 252 253 254 257 259 261 266 270 273 276 278 280 283 286
242 240 239 237 235 235 236 239 241 241 241 243 244 244 245 245 246 246 245 246 247 249 250 250 251 252 254 254 254 254 254 256 258 260 263 267 270 274 277 279 281 284
244 242 240 238 237 235 235 238 242 242 242 242 242 244 246 247 247 247 246 246 247 248 249 250 251 253 254 255 255 255 255 256 258 260 262 265 268 271 274 277 280 282
245 244 242 240 239 237 236 237 241 244 245 244 243 243 245 246 247 247 247 246 246 247 248 248 249 251 254 255 255 256 256 257 258 260 262 264 267 270 272 275 277 280
245 244 243 242 240 239 237 236 239 242 245 247 246 245 245 245 246 247 247 247 246 246 247 247 247 249 251 253 255 256 257 257 258 260 262 264 266 268 271 273 276 278
245 244 244 243 241 240 238 237 238 239 242 245 247 248 248 247 246 246 247 247 247 247 247 247 247 248 250 252 253 255 256 257 258 260 261 263 265 268 270 272 274 277
244 244 244 243 242 240 239 238 238 239 240 242 245 249 250 250 250 249 249 249 249 249 249 248 248 248 250 252 253 254 256 257 258 260 261 263 265 267 269 272 273 275
244 244 244 244 242 241 240 239 239 239 240 241 243 246 249 251 252 252 250 249 248 248 249 249 249 249 251 252 254 255 256 257 258 260 261 262 264 267 269 270 272 273
244 245 246 245 244 243 242 241 241 240 240 241 242 244 246 248 251 252 250 248 247 247 248 248 249 250 251 252 253 255 256 257 259 260 261 262 264 266 267 269 270 272
245 245 246 246 246 246 245 244 243 242 242 242 242 243 244 245 248 250 251 250 248 247 246 246 247 248 249 251 253 255 256 258 259 260 261 262 264 265 266 268 270 271